Location: Isle of Man Observatory
(54.1776°N, 4.6264°W)
Time: 11:20:06
(UTC+02:00)

Envisat - Visible Passes

Search period start: 15 October 2019 00:00
Search period end: 25 October 2019 00:00
Orbit: 764 x 766 km, 98.1° (Epoch: 15 October)

Date Brightness Start Highest point End Pass type
(mag) Time Alt. Az. Time Alt. Az. Time Alt. Az.
15 Oct 6.1 07:59:40 10° NE 08:02:56 17° E 08:06:11 10° SE visible
15 Oct 4.6 20:59:28 10° SSW 21:04:10 37° W 21:08:54 10° NNW visible
16 Oct 3.4 20:22:09 10° S 20:27:13 70° WSW 20:32:19 10° NNW visible
16 Oct 6.1 22:05:00 10° WSW 22:07:13 13° W 22:09:26 10° WNW visible
17 Oct 3.0 19:45:26 10° SSE 19:50:27 64° ENE 19:55:30 10° N visible
17 Oct 5.4 21:25:50 10° SW 21:29:55 24° W 21:34:02 10° NW visible
18 Oct 6.3 07:48:54 10° NE 07:51:30 14° E 07:54:06 10° ESE visible
18 Oct 4.2 20:47:58 10° S 20:52:49 44° W 20:57:43 10° NNW visible
19 Oct 3.1 20:10:50 10° SSE 20:15:56 84° WSW 20:21:03 10° NNW visible
19 Oct 6.0 21:52:47 10° WSW 21:55:46 16° W 21:58:47 10° NW visible
20 Oct 5.9 08:13:28 10° NE 08:17:23 22° E 08:21:16 10° SE visible
20 Oct 5.1 21:14:09 10° SSW 21:18:32 29° W 21:22:57 10° NNW visible
21 Oct 6.5 07:38:29 10° ENE 07:40:04 11° E 07:41:37 10° E visible
21 Oct 3.8 20:36:32 10° S 20:41:30 54° W 20:46:31 10° NNW visible
22 Oct 3.0 19:59:35 10° SSE 20:04:40 82° ENE 20:09:47 10° NNW visible
22 Oct 5.7 21:40:49 10° SW 21:44:21 19° W 21:47:54 10° NW visible
23 Oct 6.0 08:02:30 10° NE 08:05:58 18° E 08:09:26 10° SE visible
23 Oct 4.7 21:02:33 10° SSW 21:07:10 34° W 21:11:49 10° NNW visible
24 Oct 3.5 20:25:09 10° S 20:30:12 65° WSW 20:35:17 10° NNW visible
24 Oct 6.2 22:08:27 10° WSW 22:10:15 12° W 22:12:04 10° WNW visible
